User: anonymous   Login
Location: Heilwood
(40.6210°N, 78.9150°W)
Time: 15:27:16
(UTC-05:00)
Language:

Iridium 4 Rocket - Orbit

View from above orbital plane
View from above orbital plane
View from above satellite
View from above satellite

Ground track
Ground track

The orbit data is extracted from the following two-line orbital elements,

1 24797U 97020F   14332.15871093  .00000671  00000-0  13980-3 0  8294
2 24797 086.8941 334.5527 0227781 183.2124 228.0041 14.43309765923467
Epoch (UTC): 28 November 2014 03:48:32
Eccentricity: 0.0227781
inclination: 86.8941°
perigee height: 585 km
apogee height: 910 km
right ascension of ascending node: 334.5527°
argument of perigee: 183.2124°
revolutions per day: 14.43309765
mean anomaly at epoch: 228.0041°
orbit number at epoch: 92346

The dashed part of the orbit path shows where the satellite is in the earth's shadow,  

DLR